Theta_e
311 312 310 309 307 314 307 310 306 310 315 321 326 327 330 332 333 332 336 336 338 342 345 349 350 352 353 356 358 358 357 360
309 311 311 309 315 307 308 301 300 307 309 314 321 325 329 330 332 331 335 336 340 342 346 349 345 353 353 357 358 358 357 359
308 305 305 306 305 308 309 307 303 302 308 326 326 328 329 332 331 333 335 336 340 344 348 351 351 351 353 355 356 355 355 357
303 309 311 309 307 308 303 304 307 308 312 328 330 331 331 334 334 336 339 338 341 346 347 349 350 349 348 352 354 356 357 358
302 306 309 307 308 309 309 309 307 303 309 330 332 332 334 332 334 336 337 341 342 342 340 342 346 348 347 348 351 354 357 356
298 303 307 305 306 309 308 305 306 308 314 324 328 329 329 331 333 335 338 340 338 339 339 343 345 343 345 348 351 353 356 356
305 307 307 306 306 307 306 308 305 308 310 321 328 330 329 331 333 334 334 336 338 337 339 341 340 340 340 343 343 345 348 350
303 304 307 306 307 307 308 308 309 310 315 328 332 332 331 330 329 329 333 334 335 338 340 342 342 339 339 340 341 343 344 345
300 304 304 303 308 310 311 314 315 308 321 329 327 327 327 325 326 326 326 327 325 325 325 329 335 339 337 337 343 345 343 344
302 303 295 306 312 311 313 316 318 319 322 327 326 325 327 326 325 323 324 324 324 323 323 322 324 327 330 331 333 336 340 341
298 298 301 304 309 308 307 312 318 321 324 324 325 325 320 324 327 326 326 323 321 319 319 320 320 323 324 325 326 328 329 334
299 296 293 304 308 310 311 306 321 323 323 322 324 319 317 324 324 323 322 320 319 320 317 315 315 317 317 319 322 324 328 333
300 298 302 307 308 311 301 304 315 323 323 323 321 325 324 321 320 320 320 318 319 318 316 315 315 316 315 316 316 320 325 327
300 297 294 310 309 306 311 315 316 322 324 322 320 323 325 324 326 323 318 315 316 317 315 317 318 318 318 318 321 322 324 324
303 303 310 311 311 314 316 316 316 320 324 325 322 322 323 322 323 323 324 323 323 319 318 321 321 322 320 320 321 322 322 323
305 308 309 310 313 314 316 317 320 321 324 325 322 322 321 321 321 321 320 319 319 318 317 316 318 318 319 318 319 319 319 319
305 310 311 311 312 314 315 317 319 322 322 323 322 322 321 320 319 318 318 317 318 316 316 316 316 316 316 316 317 316 315 315
303 311 310 312 313 313 313 315 317 318 319 322 323 321 321 319 317 314 316 316 316 315 315 315 315 314 314 315 315 314 313 312
310 314 312 314 314 314 314 313 316 317 319 320 322 321 319 317 315 313 311 312 313 314 315 314 314 313 313 314 313 312 313 310
Wind_Speed
11 14 10 16 19 16 16 6 11 11 6 6 7 11 14 20 24 18 18 18 16 17 16 14 17 15 15 12 11 11 11 8
16 15 16 15 14 14 10 10 12 9 10 7 10 11 16 19 23 19 14 16 17 15 14 13 9 13 12 13 11 10 11 8
14 16 17 12 13 14 14 14 8 10 8 8 9 8 16 19 20 22 26 20 14 14 14 13 13 7 12 10 12 11 10 10
18 12 12 21 17 17 12 12 12 10 7 6 4 9 9 13 13 17 17 18 17 13 14 14 14 12 9 6 8 8 9 11
9 10 9 14 16 18 20 17 15 12 4 6 7 7 10 10 11 9 11 14 14 14 9 7 8 7 8 8 4 6 7 9
4 13 16 17 11 16 13 13 13 11 7 9 10 10 9 10 12 12 15 17 14 13 9 7 9 6 7 5 5 6 6 7
5 6 4 8 15 15 15 18 13 7 11 10 11 11 12 10 9 12 12 14 14 13 15 13 12 11 7 5 5 4 3 4
6 4 4 9 4 5 4 5 7 8 7 5 9 9 10 10 10 9 13 10 9 8 12 13 12 11 9 8 6 8 9 5
8 0 7 11 7 5 2 1 7 10 9 9 11 9 10 10 9 9 9 11 11 10 9 8 7 10 9 6 5 6 6 5
3 4 11 10 4 4 5 4 3 3 3 6 10 12 10 9 11 10 10 9 10 9 9 8 8 9 9 7 8 7 7 7
6 10 6 5 8 8 8 6 6 2 7 11 13 14 8 9 9 12 12 11 10 10 10 9 9 8 9 9 9 8 7 8
8 3 7 7 5 7 7 4 9 4 6 9 13 9 7 12 13 13 12 11 12 12 11 10 8 9 10 9 7 7 5 9
4 6 9 5 6 3 7 6 10 4 4 7 10 7 22 15 13 12 12 13 11 9 10 9 8 8 9 7 6 4 6 8
3 5 4 9 2 5 7 6 9 2 1 5 8 11 17 17 17 18 16 12 11 10 8 7 6 6 6 6 7 4 4 6
5 6 5 6 8 6 8 8 6 7 2 5 8 12 15 14 14 14 15 11 11 9 8 7 7 6 7 6 5 6 6 6
4 7 5 4 4 7 9 9 7 2 4 7 11 14 14 13 13 12 11 10 9 10 8 7 6 7 7 6 5 5 5 5
4 3 3 5 5 5 7 8 8 5 5 8 12 14 14 13 13 12 10 9 8 7 7 8 6 6 6 5 5 5 5 4
2 7 4 7 3 3 4 6 6 5 5 7 11 13 14 13 12 9 11 8 8 7 7 7 6 6 5 4 4 5 6 5
0 2 2 4 3 4 1 3 4 3 4 7 9 11 13 12 11 10 8 6 6 7 6 6 6 6 6 5 5 4 3 4
Wind_Direction
202 216 219 190 226 239 276 255 259 158 174 149 185 205 200 179 168 206 205 194 193 200 190 184 189 182 181 177 187 196 197 200
198 215 214 238 196 210 241 217 231 158 224 104 182 175 177 173 179 175 202 209 195 197 190 170 196 173 196 173 181 190 208 206
187 204 195 194 225 222 248 240 259 229 189 68 135 183 172 174 178 179 195 198 192 190 172 181 161 156 173 168 176 192 204 200
198 197 245 203 215 203 230 188 259 312 81 105 139 150 183 158 177 183 184 190 175 164 169 168 174 163 140 171 173 189 193 202
166 185 204 231 214 231 216 246 219 239 157 127 139 145 138 150 155 152 160 140 144 152 145 148 163 179 141 167 210 198 185 210
269 193 186 203 207 224 242 229 235 209 142 164 160 155 137 153 163 159 166 156 149 137 122 129 148 148 124 113 135 143 166 209
75 79 158 201 200 200 226 243 267 232 213 145 170 155 166 153 166 159 162 169 169 171 160 179 164 147 145 151 158 95 161 186
115 108 143 131 158 199 228 250 262 270 103 116 127 133 149 147 153 158 161 142 116 145 156 173 161 156 152 163 174 183 188 194
134 135 178 144 37 51 139 171 324 225 54 147 132 149 119 124 123 132 119 111 101 99 94 92 104 139 139 133 146 176 144 166
193 272 209 57 37 1 8 36 344 340 23 155 111 105 114 124 127 121 116 119 111 109 104 95 95 110 123 122 115 121 149 151
276 187 296 161 44 22 357 75 9 51 115 120 128 116 106 128 129 125 116 106 105 99 97 96 92 90 101 103 107 109 118 132
220 227 220 31 10 340 317 161 21 68 157 162 172 194 144 133 127 115 113 115 113 109 104 89 78 85 77 76 75 86 136 122
177 248 103 37 315 323 246 42 346 354 180 178 213 7 128 132 124 123 119 117 113 108 103 105 107 98 89 86 67 56 109 107
266 260 181 1 188 327 2 330 348 14 66 186 79 129 136 144 142 132 128 125 119 116 117 121 124 123 132 113 131 139 100 97
333 42 78 49 54 32 2 342 354 326 152 160 141 140 141 140 134 137 138 139 139 132 123 120 112 125 124 114 112 114 119 123
224 132 115 80 78 33 23 15 5 303 141 142 154 154 150 149 143 142 138 139 140 139 132 108 103 99 100 106 108 114 113 116
244 166 158 135 82 39 34 27 42 57 133 153 158 159 158 155 152 146 144 146 144 132 127 122 122 107 114 127 141 133 132 126
334 79 308 84 78 32 27 34 46 73 120 154 165 166 167 157 151 143 148 148 143 134 129 133 143 135 132 144 163 162 155 163
176 125 110 116 112 44 341 29 59 62 122 159 163 162 169 160 157 143 137 153 149 141 138 161 163 152 154 156 175 184 148 139